Volver al catálogo

COSMOS 2251 DEB

ActivoLEO
NORAD 34569·DEBRIS·🇷🇺 Russia

Lanzado Jun 16, 1993 desde Plesetsk Cosmodrome

Loading…

Próximos Pases (próximas 24 horas)

TLE

ActualizadoSource: Space-Track

Época: Sep 13, 2026, 22:27 UTC

1 34569U 93036VF  26256.93574731  .00001141  00000-0  43535-3 0  9998
2 34569  73.9897  60.1786 0156213 186.0886 330.8776 14.25443461908886

Sigue COSMOS 2251 DEB en tiempo real con AllMySat

Download on the App Store